Location: Baumgarten
(49.0970°N, 12.7493°E)
Time: 16:33:13
(UTC+00:00)

SeaSat 1 - Pass Details

Date: 05 July 2020
Orbit: 744 x 748 km, 108.0° (Epoch: 12 August)

Event Time Altitude Azimuth Distance (km) Brightness Sun altitude
Rises 23:42:35 0° 38° (NE) 3,200 6.7 -18.0°
Reaches altitude 10° 23:45:13 10° 51° (NE) 2,272 5.6 -17.9°
Maximum altitude 23:49:20 26° 108° (ESE) 1,440 3.8 -17.8°
Enters shadow 23:51:18 20° 143° (SE) 1,663 3.9 -17.8°
